Wind_Speed
7 7 7 7 7 7 6 6 6 7 7 7 8 9 10 11 12 13 14 15 15 15 16 16 15 15 15 14 14 13 12 11 12 13 14 15 16 18 20 21 22 24 25
7 7 7 7 7 7 7 7 7 7 7 7 8 9 10 11 12 13 14 14 15 16 16 16 16 15 15 15 14 13 11 11 11 11 12 14 15 17 20 21 22 23 24
7 7 7 7 7 7 7 7 7 7 7 7 8 9 10 11 12 13 14 14 15 15 16 16 16 16 15 15 14 13 11 10 9 10 11 12 14 16 18 20 22 23 24
7 7 6 7 7 7 7 7 7 7 7 8 9 10 10 11 12 13 14 14 15 15 16 16 16 16 16 15 14 13 11 9 8 8 9 10 12 14 16 19 22 23 24
7 7 6 6 6 7 7 7 7 7 8 8 9 10 11 11 12 13 13 14 15 15 15 16 16 16 16 15 14 14 12 9 8 7 8 9 11 12 14 17 20 22 23
7 7 6 6 7 7 7 7 7 8 8 9 9 10 11 11 12 13 13 13 14 15 15 16 16 16 16 15 15 14 13 10 8 6 6 7 9 12 14 15 17 19 21
7 6 6 6 7 7 7 7 7 8 8 9 9 10 10 11 12 12 13 13 14 15 15 16 16 16 16 15 15 14 13 11 8 6 5 6 8 10 12 14 15 17 19
6 6 6 6 7 7 7 7 7 8 8 9 9 10 10 11 12 12 13 13 14 15 15 15 16 16 16 15 15 14 13 11 8 6 5 6 7 9 11 13 14 16 18
5 6 6 6 7 7 8 8 8 9 9 9 10 10 10 11 11 12 13 13 14 15 15 15 16 16 16 16 15 14 12 11 9 6 5 5 6 8 9 11 13 15 17
5 6 6 6 7 8 8 9 9 10 10 10 11 11 11 12 12 12 13 13 14 14 15 15 15 16 16 16 15 14 12 11 9 7 5 4 5 7 8 10 12 13 15
6 6 6 7 7 8 8 9 10 11 11 11 11 11 12 12 13 13 13 14 14 15 15 15 15 15 16 16 15 14 12 11 10 8 6 5 4 6 7 9 11 12 13
6 7 8 8 8 9 9 10 10 11 11 12 12 12 13 13 14 14 14 14 15 15 15 15 16 16 16 15 15 14 13 11 9 8 7 5 5 5 6 8 10 12 13
6 8 8 9 9 10 10 11 11 12 12 13 13 13 14 14 14 15 15 15 15 16 16 16 16 16 15 15 15 14 13 11 10 9 7 6 6 6 7 8 10 11 13
7 8 9 10 10 11 12 12 12 13 13 14 14 15 15 15 16 16 16 16 16 16 16 16 16 16 16 15 15 14 13 12 11 10 8 7 7 7 8 8 9 11 12
9 10 10 11 11 12 13 13 14 14 15 15 16 16 16 17 17 17 17 17 17 17 17 17 17 17 17 16 15 14 14 13 12 11 10 10 9 9 10 10 11 11 12
11 11 12 12 13 13 14 14 15 16 16 17 17 18 18 18 19 19 19 19 19 19 18 18 18 18 18 17 16 16 15 14 13 12 12 11 11 10 11 11 12 13 14
12 13 13 14 15 15 15 16 17 17 18 18 19 19 20 20 20 21 21 21 21 21 20 20 19 19 19 19 18 18 17 16 15 15 14 13 13 12 12 13 13 13 15
14 15 16 16 17 17 18 19 19 20 20 20 21 21 22 22 23 23 23 23 23 23 23 22 22 21 21 21 20 20 19 18 17 17 16 16 15 15 15 15 15 15 16
17 18 18 19 19 20 20 21 21 22 22 23 23 24 24 25 25 25 26 26 26 26 26 25 25 24 23 23 23 22 22 21 20 19 19 18 18 18 18 17 17 17 18
19 20 21 21 22 22 23 23 24 24 25 25 26 26 27 28 28 29 29 29 29 29 28 28 28 28 27 26 26 25 25 24 24 23 22 21 21 20 20 20 20 20 20
21 22 23 23 24 24 25 26 26 27 28 28 29 29 30 31 31 32 32 32 32 32 31 31 30 30 30 30 29 28 28 27 27 26 25 24 24 23 23 22 22 22 22
24 25 25 26 27 27 28 29 29 30 30 31 32 33 33 34 34 34 34 35 35 34 34 34 34 33 33 33 32 32 31 30 30 29 28 27 26 26 25 25 24 24 24
27 28 28 29 30 30 31 32 32 33 34 35 36 36 37 37 38 38 37 37 37 37 38 38 37 37 36 36 35 35 34 34 33 32 31 31 30 29 28 27 27 26 26
30 31 32 32 33 34 35 36 36 37 37 38 38 39 39 40 40 40 40 41 41 41 41 40 40 40 39 38 37 37 37 36 35 34 34 33 32 32 31 29 29 28 28
34 35 35 36 37 38 39 39 40 40 40 41 41 42 42 43 43 44 44 44 44 44 43 43 42 42 41 40 39 39 38 38 38 37 36 35 34 34 33 32 31 30 29
37 38 39 40 41 42 42 43 43 43 44 45 45 46 46 46 46 47 47 46 46 46 45 44 44 44 43 42 41 41 40 40 40 40 38 37 36 35 35 34 33 33 32
Wind_Direction
231 228 230 237 246 252 258 274 283 289 297 304 312 319 324 329 331 334 337 340 341 341 341 340 338 335 333 330 324 316 304 290 278 266 254 246 241 236 228 222 219 216 214
227 225 231 236 247 256 265 276 283 288 296 306 313 319 324 327 331 333 338 342 344 344 344 343 342 340 336 334 330 325 313 298 285 271 257 248 240 233 228 221 218 216 215
224 226 231 241 250 256 264 273 281 288 298 308 314 319 323 327 331 334 337 342 345 346 345 346 346 344 340 338 336 332 321 307 293 277 263 251 240 230 225 221 218 217 217
217 226 236 245 252 258 266 274 279 289 300 309 314 317 321 325 331 334 337 341 344 346 346 348 349 348 345 343 342 338 328 314 298 281 267 253 240 229 225 221 218 218 217
216 227 238 247 256 265 271 278 282 290 297 302 308 313 318 324 329 334 337 340 343 346 348 349 350 349 349 348 346 344 338 324 306 285 267 255 243 229 225 220 217 217 218
221 232 243 254 262 268 275 281 286 293 296 299 303 309 315 322 328 333 337 340 343 346 349 350 350 350 350 350 349 348 345 336 319 291 268 253 243 231 225 220 220 218 218
226 238 251 260 265 270 275 280 289 296 298 300 302 307 315 322 327 332 336 339 342 344 347 349 351 351 349 349 349 348 348 343 331 304 275 255 242 233 228 224 222 221 220
232 248 258 261 265 270 275 279 286 293 298 301 302 305 312 319 325 331 335 337 340 342 344 347 350 351 351 349 348 347 348 347 341 320 289 265 246 236 230 227 226 224 222
237 251 260 268 272 276 278 280 284 288 294 299 303 306 310 316 321 326 331 335 339 341 342 344 346 349 350 351 350 349 349 348 345 335 312 280 256 241 231 229 228 226 223
246 253 262 270 277 283 285 284 285 288 291 297 303 306 309 314 317 322 326 330 334 336 338 341 343 346 349 350 350 349 348 348 347 341 325 298 269 245 234 231 231 229 227
252 258 266 273 280 287 292 292 290 290 292 297 301 304 307 310 312 316 320 324 328 330 333 336 337 340 343 346 348 347 346 345 344 338 329 312 283 256 239 233 232 231 227
262 269 274 281 287 291 293 294 295 295 295 296 299 302 304 307 309 311 314 317 320 323 326 329 333 335 338 341 344 345 344 343 341 337 326 311 291 267 250 241 237 234 231
275 281 287 288 294 295 294 292 294 295 295 296 297 299 301 303 305 307 309 311 313 317 320 323 326 329 332 335 338 340 339 337 334 332 323 307 289 271 259 251 244 238 234
282 289 295 295 296 298 296 294 294 296 296 297 297 297 299 300 302 304 306 307 309 311 314 316 319 322 324 326 328 330 331 329 326 323 317 305 288 273 262 257 252 244 238
279 285 292 295 297 298 297 295 296 297 297 296 296 296 297 298 299 300 301 303 305 306 308 309 311 314 315 316 317 318 320 320 317 313 307 301 291 280 268 261 257 251 244
282 286 291 294 296 297 297 296 296 297 297 296 296 295 296 296 296 297 298 299 301 302 302 303 305 306 307 308 307 307 309 309 308 306 302 296 290 283 276 266 260 256 249
286 288 290 292 295 296 297 298 297 296 296 296 296 296 295 294 294 295 296 297 298 299 299 299 300 301 300 301 301 299 299 299 299 298 296 292 286 281 276 270 264 262 257
284 286 289 291 294 295 296 296 295 295 294 294 294 295 295 295 294 294 294 294 295 295 295 294 294 295 295 295 295 294 293 292 291 290 289 287 283 280 275 271 267 263 260
283 286 288 290 292 293 294 294 294 294 293 293 293 294 294 294 293 293 293 293 293 293 293 292 291 291 290 289 289 289 288 287 285 284 283 282 280 277 275 272 267 264 261
285 287 289 290 291 292 293 293 293 293 292 292 292 293 294 294 293 292 292 292 291 291 290 289 288 287 286 284 283 283 282 281 280 279 278 277 276 274 273 272 269 265 262
285 287 289 290 291 292 293 293 293 292 292 292 292 293 294 294 293 292 291 290 289 288 287 287 286 284 283 281 280 279 278 277 276 275 274 274 273 272 271 270 268 265 262
286 288 289 290 291 292 293 293 294 293 292 291 292 292 293 293 292 291 290 289 287 286 285 285 284 282 281 280 278 277 276 275 274 273 272 271 270 270 269 268 266 264 262
285 287 288 289 290 291 291 292 293 293 293 292 292 292 293 293 292 290 288 286 285 285 284 283 281 280 279 279 277 275 274 273 272 271 270 269 268 267 267 266 264 262 260
285 286 287 288 289 289 290 291 291 292 292 292 292 292 292 292 291 289 287 285 284 282 282 281 279 278 278 277 275 273 271 270 269 269 268 268 266 265 263 263 262 260 260
285 286 287 288 288 288 289 290 291 291 292 292 292 292 292 291 290 288 286 284 283 282 281 280 278 276 276 275 274 272 269 268 267 266 266 265 264 263 262 261 259 259 259
287 288 288 288 288 288 289 290 290 291 291 291 292 292 291 291 290 289 286 283 282 281 280 279 277 275 274 273 272 271 268 266 265 264 263 263 263 262 262 261 260 259 258
Height
5852 5853 5854 5855 5855 5855 5855 5855 5855 5854 5853 5852 5850 5849 5847 5845 5843 5840 5838 5834 5831 5828 5824 5821 5818 5815 5812 5809 5806 5803 5802 5800 5799 5799 5799 5800 5801 5803 5805 5807 5811 5814 5817
5851 5852 5853 5853 5854 5854 5854 5854 5853 5853 5852 5850 5849 5848 5846 5844 5842 5839 5836 5833 5830 5826 5823 5820 5816 5813 5810 5807 5804 5801 5799 5797 5797 5796 5796 5797 5799 5799 5801 5804 5807 5810 5814
5850 5851 5852 5852 5853 5853 5853 5852 5852 5851 5850 5849 5848 5846 5844 5842 5840 5838 5835 5832 5828 5825 5822 5818 5815 5812 5808 5805 5802 5799 5797 5795 5794 5793 5794 5794 5795 5796 5798 5800 5804 5807 5810
5849 5850 5850 5851 5851 5851 5851 5851 5850 5850 5849 5848 5847 5845 5843 5841 5839 5836 5834 5831 5827 5824 5821 5817 5814 5810 5807 5804 5801 5798 5795 5793 5792 5791 5791 5792 5792 5794 5796 5798 5801 5804 5807
5848 5849 5849 5850 5850 5850 5850 5850 5849 5848 5847 5846 5845 5844 5842 5840 5838 5835 5832 5829 5826 5823 5820 5816 5813 5810 5806 5803 5800 5797 5794 5792 5790 5790 5789 5789 5790 5791 5793 5796 5798 5801 5804
5847 5848 5848 5848 5849 5849 5848 5848 5847 5847 5846 5845 5844 5842 5841 5839 5836 5834 5831 5828 5825 5822 5819 5816 5812 5809 5805 5802 5799 5796 5793 5791 5789 5788 5788 5788 5789 5790 5792 5794 5796 5798 5801
5846 5846 5847 5847 5847 5847 5847 5846 5846 5845 5844 5843 5842 5841 5839 5837 5835 5832 5830 5827 5824 5821 5818 5815 5812 5808 5805 5802 5799 5796 5793 5790 5788 5787 5786 5787 5787 5788 5790 5792 5793 5795 5798
5844 5845 5845 5845 5845 5845 5845 5844 5844 5843 5842 5841 5840 5839 5837 5835 5833 5831 5828 5826 5823 5820 5817 5814 5811 5808 5804 5801 5798 5795 5792 5790 5787 5786 5785 5785 5786 5787 5788 5790 5791 5793 5795
5843 5843 5844 5844 5843 5843 5843 5842 5842 5841 5840 5839 5838 5837 5835 5833 5831 5829 5827 5825 5822 5819 5816 5813 5810 5807 5804 5801 5798 5795 5792 5789 5787 5786 5785 5784 5784 5785 5786 5787 5789 5791 5793
5842 5842 5842 5842 5842 5841 5841 5840 5839 5839 5838 5837 5836 5835 5833 5831 5830 5828 5825 5823 5821 5818 5815 5813 5810 5807 5803 5800 5797 5794 5791 5789 5787 5786 5784 5784 5784 5784 5785 5786 5787 5788 5790
5840 5840 5840 5840 5840 5839 5839 5838 5837 5836 5835 5835 5834 5832 5831 5829 5828 5826 5824 5822 5819 5817 5814 5811 5809 5806 5803 5800 5797 5794 5791 5789 5787 5785 5784 5783 5783 5783 5783 5784 5785 5786 5788
5838 5838 5838 5838 5837 5837 5836 5836 5835 5834 5833 5832 5831 5830 5828 5827 5825 5824 5822 5820 5817 5815 5812 5810 5807 5805 5802 5799 5796 5793 5791 5788 5787 5785 5784 5783 5782 5782 5782 5783 5783 5784 5785
5836 5836 5835 5835 5835 5834 5834 5833 5832 5831 5830 5829 5828 5827 5825 5824 5822 5821 5819 5817 5815 5813 5810 5808 5806 5803 5800 5798 5795 5792 5790 5788 5786 5784 5783 5782 5781 5781 5781 5781 5781 5782 5783
5833 5833 5833 5832 5832 5831 5830 5830 5829 5828 5827 5826 5825 5824 5822 5821 5819 5818 5816 5814 5812 5810 5808 5806 5803 5801 5799 5796 5794 5791 5789 5787 5785 5783 5782 5781 5780 5779 5779 5779 5779 5780 5781
5831 5831 5830 5830 5829 5828 5827 5826 5826 5825 5823 5822 5821 5820 5819 5817 5816 5814 5812 5811 5809 5807 5805 5803 5801 5798 5796 5794 5792 5789 5787 5785 5783 5782 5780 5779 5778 5778 5777 5777 5777 5777 5778
5828 5828 5827 5827 5826 5825 5824 5823 5822 5821 5820 5818 5817 5816 5815 5813 5811 5810 5808 5807 5805 5803 5801 5799 5797 5795 5793 5791 5789 5787 5785 5783 5781 5780 5778 5777 5776 5775 5775 5774 5774 5774 5775
5825 5824 5824 5823 5822 5821 5820 5819 5817 5816 5815 5814 5813 5811 5810 5808 5807 5805 5803 5802 5800 5798 5796 5795 5793 5791 5789 5787 5785 5783 5781 5780 5778 5777 5775 5774 5773 5772 5771 5771 5771 5771 5771
5821 5820 5819 5818 5817 5816 5815 5814 5812 5811 5810 5808 5807 5806 5804 5802 5801 5799 5798 5796 5794 5793 5791 5789 5787 5786 5784 5782 5781 5779 5777 5775 5774 5772 5771 5770 5769 5768 5767 5767 5766 5766 5766
5816 5815 5814 5813 5812 5811 5809 5808 5807 5805 5804 5802 5801 5799 5798 5796 5794 5792 5791 5789 5787 5786 5784 5782 5781 5779 5778 5776 5774 5773 5771 5770 5769 5767 5766 5765 5764 5763 5763 5762 5761 5761 5761
5810 5809 5808 5807 5806 5805 5803 5802 5800 5798 5797 5795 5794 5792 5790 5788 5787 5785 5783 5781 5779 5778 5776 5775 5773 5771 5770 5768 5767 5765 5764 5763 5762 5761 5760 5759 5758 5758 5757 5756 5756 5755 5755
5804 5803 5802 5800 5799 5798 5796 5794 5793 5791 5789 5787 5785 5783 5782 5780 5778 5776 5774 5772 5770 5769 5767 5765 5764 5762 5761 5759 5758 5756 5755 5755 5754 5753 5753 5752 5751 5751 5750 5749 5749 5749 5748
5796 5795 5794 5793 5791 5789 5788 5786 5784 5783 5780 5778 5776 5774 5772 5770 5768 5766 5764 5762 5760 5758 5757 5755 5753 5752 5750 5749 5748 5747 5746 5745 5744 5744 5744 5743 5743 5742 5742 5742 5741 5741 5741
5788 5787 5785 5784 5782 5780 5778 5777 5775 5772 5770 5768 5766 5763 5761 5758 5756 5754 5752 5750 5748 5746 5745 5743 5742 5740 5739 5738 5736 5735 5735 5734 5734 5734 5734 5733 5733 5733 5733 5733 5733 5733 5733
5779 5778 5776 5774 5772 5770 5768 5766 5764 5761 5759 5756 5754 5751 5748 5746 5743 5741 5739 5737 5735 5733 5731 5730 5728 5727 5726 5725 5724 5723 5722 5722 5722 5722 5722 5722 5722 5722 5723 5723 5723 5724 5724
5769 5767 5766 5764 5761 5759 5757 5754 5751 5749 5747 5744 5741 5738 5735 5732 5730 5727 5724 5722 5720 5718 5716 5715 5713 5713 5712 5711 5710 5709 5709 5709 5709 5709 5709 5710 5710 5711 5711 5712 5713 5714 5715
5758 5756 5754 5751 5749 5747 5744 5741 5738 5736 5733 5730 5727 5724 5721 5718 5714 5711 5709 5706 5704 5702 5700 5699 5698 5697 5696 5695 5695 5694 5694 5694 5695 5695 5696 5697 5698 5699 5700 5701 5702 5703 5705